Погода в Ширмовке

Украина / Винницкая область     49°33′49″N   29°05′35″E
темп.,
°C
ветер,
м/с
пор.,
м/с
влажн.,
%
обл.,
%
осадки,
мм/ч
давл.,
гПа
погр.,
м
17 сентября, пт
пт1700:00+15ююв5115483 0.0 1016235
03:00+16ю51247100 0.0 1015327
06:00+14ююв51260100 0.0 1013252
09:00+16ю61170100 0.0 1011321
12:00+17ююв597598 0.1 1011431
15:00+23ююз795385 0.2 10091100
18:00+22ю5955100 0.1 1007779
21:00+17ююз4108799 0.1 1007368
18 сентября, сб
сб1800:00+17ю498597 0.1 1006262
03:00+15ю4108926 0.1 1005261
06:00+15ююз5109196 0.0 1004335
09:00+15зюз61188100 0.0 1004721
12:00+18з8116199 0.0 10051120
15:00+19з896197 0.1 10061316
18:00+16зсз7107233 0.1 1007831
21:00+11зсз410866 0.1 1009286
19 сентября, вс
вс1900:00+13юз36795 0.0 1008281
03:00+10юз489671 0.0 1008188
06:00+9зюз379740 0.0 1008180
09:00+13зюз4681100 0.0 1008618
12:00+8з5990100 1.9 1009543
15:00+7з6981100 2.8 1010928
18:00+7з5883100 0.1 10101049
21:00+7з5887100 0.1 10101060
20 сентября, пн
пн2000:00+6з5886100 0.1 10101130
03:00+5з6995100 0.6 1010849
06:00+6з61094100 0.1 1009965
09:00+6з71294100 0.3 1010704
12:00+7зсз71393100 0.4 1012707
15:00+8зсз71189100 0.4 1013664
18:00+7зсз61088100 0.0 1015709
21:00+7зсз5987100 0.0 1016675
21 сентября, вт
вт2100:00+6з5986100 0.0 1017625
03:00+5з5986100 0.0 1017626
06:00+5з5985100 0.0 1017664
09:00+6з5977100 0.1 10171041
12:00+9зсз71261100 0.0 10171397
15:00+6з61181100 0.2 10171118
18:00+5зсз61078100 0.2 10181194
21:00+4зсз61086100 0.3 10181171